Location: ????????
(55.5667°N, 37.5833°E)
Time: 17:29:40
(UTC+00:00)

Lacrosse 5 rocket - Pass Details

Date: 14 April 2026
Orbit: 390 x 472 km, 57.0° (Epoch: 15 May)

Event Time Altitude Azimuth Distance (km) Brightness Sun altitude
Rises 17:52:59 0° 235° (SW) 2,293 4.8 -10.8°
Reaches altitude 10° 17:55:04 10° 231° (SW) 1,432 3.6 -11.1°
Maximum altitude 17:58:11 54° 153° (SSE) 483 0.7 -11.4°
Drops below altitude 10° 18:01:18 10° 75° (ENE) 1,432 3.1 -11.8°
Enters shadow 18:01:28 - 75° (ENE) 1,505 3.2 -11.8°
